Emporia, KS (66801)

10:19 PM CDT on August 30, 2015 (GMT -0500)
Timmerman School Area | | Change Station
CLOSE
Current Station
Personal Weather Station
Location: Emporia, KS
Elevation: 1214 ft
Nearby Weather Stations

Elev 1214 ft 38.43 °N, 96.22 °W | Updated 9 seconds ago

Clear
Clear
74.7 °F
Feels Like 77 °F
N
6.5
Wind Variable Wind from SE
Gusts 7.4 mph

Today
High -- | Low -- °F
--% Chance of Precip.
Yesterday
High -- | Low -- °F
Precip. -- in
6:52 AM 7:57 PM
Full, 97% visible
Pressure 29.96 in
Visibility 10.0 miles
Clouds Clear
Heat Index 77 °F
Dew Point 43 °F
Humidity 32%
Rainfall 0.01 in
Snow Depth Not available.
UV 0 out of 12
Pollen 10.50 out of 12
Air Quality Not available.
Flu Activity Not available.
METAR KEMP 310253Z AUTO 13006KT 10SM CLR 22/19 A2998 RMK AO2 SLP144 T02220194 53007
Pressure 29.96 in
Visibility 10.0 miles
Clouds Clear
Heat Index 77 °F
Dew Point 43 °F
Humidity 32%
Rainfall 0.01 in
Snow Depth Not available.
UV 0 out of 12
Pollen 10.50 out of 12
Air Quality Not available.
Flu Activity Not available.
METAR KEMP 310253Z AUTO 13006KT 10SM CLR 22/19 A2998 RMK AO2 SLP144 T02220194 53007

10-Day Weather Forecast

×

Almanac

Astronomy

Aug. 30, 2015 Rise Set
Actual Time
Civil Twilight
Nautical Twilight
Astronomical Twilight
Moon
Length of Visible Light
Length of Day
Tomorrow will be .
, % of the Moon is Illuminated

Today's Extremes

State Highs State Lows

Community

WunderPhotos

Upload Photos

1,851,167 photos uploaded!

WunderBlogs® & News

Nearby

Air Quality

  Air Quality AQ Index Pollutant
Not available.

Snow Depth

Station Depth Elevation

Earthquake Activity

City Distance Mag. Time & Date
Minimum magnitude displayed is 2.5.

Coastal Water Temperatures

Place Temperature

Stations

Nearby Weather Stations

Station Location Temp. Windchill Dew Point Humidity Wind Precip. Elev Updated Type